Vertical_Velocity
1 1 -0 -0 -0 -2 -2 -3 -4 -3 -3 -3 -3 -3 -3 -2 -0 -3 -4 -3 -2 -4
1 1 -0 -1 -3 -2 -4 -3 -2 -4 -3 -3 -3 -4 -5 -2 -2 -5 -4 -3 -3 -3
1 0 0 -1 -2 -2 -2 -3 -4 -4 -4 -3 -3 -2 -2 -2 -3 -5 -2 -4 -4 -1
1 0 -1 -2 -2 -4 -4 -4 -3 -4 -3 -1 -2 -2 -3 -2 -2 -3 -3 -1 -7 -2
-0 -1 -2 -2 -2 -3 -2 -2 -3 -1 -3 -1 -4 -3 -4 -4 -4 -3 -1 1 -2 -1
-1 -2 -1 -1 -1 -2 -1 -3 -0 -1 -1 0 -4 -4 -2 -6 -3 -3 -4 -1 -2 -0
-4 -1 -2 -3 -3 -3 -3 -2 -1 -3 -1 -4 -4 -4 -5 -1 -1 -0 -2 -2 -4 -2
-5 -3 -3 -2 -2 -2 -2 -2 -4 -2 -2 -2 -5 -3 -3 -2 -6 -3 -0 3 0 -2
-1 -2 -3 -0 -1 0 -1 -2 -5 -5 -4 -1 -2 -3 -3 -9 -6 -1 -5 -3 1 -1
-2 -2 -3 -3 -3 -1 -2 -1 -1 -5 -2 2 -1 -3 -2 -7 -5 -1 -5 -1 -6 4
-0 -2 -3 -4 -2 -1 -3 -4 -1 -1 -3 -3 -2 -4 -1 -3 3 5 -2 -1 -1 -1
1 -5 -3 -2 -1 -1 -0 -0 1 -7 -1 -6 3 -7 -3 -5 1 -0 1 -1 -2 -3
-1 1 -3 -2 1 2 -1 -4 -5 -1 -4 1 -4 -3 4 2 -10 -4 -2 -3 -5 -0
-1 -1 -2 -3 -2 -5 -4 -3 -4 -1 -0 -5 -4 -2 -7 0 -1 -5 -3 -3 -2 -3
Height
3052 3053 3052 3050 3047 3045 3043 3040 3037 3033 3029 3024 3018 3013 3006 3001 2996 2990 2986 2981 2976 2970
3046 3046 3044 3041 3039 3037 3034 3030 3026 3021 3017 3013 3007 3000 2995 2990 2986 2980 2976 2971 2966 2961
3038 3037 3035 3033 3031 3028 3025 3020 3016 3011 3006 3000 2995 2989 2983 2978 2973 2967 2964 2959 2954 2950
3030 3029 3028 3026 3023 3020 3016 3011 3005 2999 2994 2990 2985 2980 2973 2968 2962 2957 2953 2948 2943 2939
3023 3022 3021 3018 3014 3010 3005 3000 2995 2990 2986 2982 2976 2970 2964 2958 2954 2948 2944 2939 2934 2930
3016 3015 3012 3009 3004 2999 2995 2991 2987 2982 2977 2972 2967 2962 2955 2949 2943 2938 2934 2929 2923 2919
3008 3006 3003 2999 2995 2992 2988 2984 2980 2975 2970 2964 2958 2951 2945 2939 2933 2929 2924 2918 2913 2909
3000 2998 2995 2992 2988 2985 2980 2976 2972 2967 2962 2955 2948 2941 2936 2931 2924 2918 2913 2909 2904 2899
2993 2990 2987 2984 2980 2976 2973 2968 2963 2958 2952 2946 2940 2933 2928 2922 2915 2908 2903 2899 2893 2888
2985 2982 2980 2977 2973 2969 2965 2960 2955 2950 2944 2939 2933 2926 2920 2914 2907 2901 2895 2890 2883 2877
2977 2975 2972 2968 2964 2959 2956 2952 2947 2943 2938 2931 2927 2918 2913 2907 2900 2893 2889 2882 2875 2868
2969 2965 2962 2960 2956 2952 2949 2945 2942 2937 2932 2923 2918 2912 2906 2900 2894 2886 2879 2873 2868 2860
2960 2957 2954 2951 2949 2946 2943 2940 2936 2931 2923 2917 2911 2906 2902 2894 2886 2879 2870 2862 2856 2851
2952 2950 2947 2945 2943 2941 2938 2933 2928 2923 2918 2912 2906 2899 2894 2888 2879 2870 2861 2854 2845 2838